Regional Weather Roundup
Issued by NWS Northern Indiana

Home | Current Version | Previous Version | Graphics & Text | Print | Product List | Glossary On
Versions: 1 2 3 4 5 6 7 8 9 10 11 12 13 14 15 16 17 18 19 20 21 22 23 24 25 26 27 28 29 30 31 32 33 34 35 36 37 38 39 40 41 42 43 44 45 46 47 48 49 50
000
ASUS43 KIWX 211500
RWRIWX

KIWX WEATHER ROUNDUP
NATIONAL WEATHER SERVICE NORTHERN INDIANA
1000 AM EST TUE NOV 21 2017

NOTE: "FAIR" INDICATES FEW OR NO CLOUDS BELOW 12,000 FEET WITH NO
SIGNIFICANT WEATHER AND/OR OBSTRUCTIONS TO VISIBILITY.

* THESE STATIONS ARE NOT UNDER NWS QUALITY CONTROL. THEY ALSO MAY NOT
  REPORT WEATHER SUCH AS PRECIPITATION OR FOG.

INZ001>027-211600-
NORTHERN INDIANA

CITY           SKY/WX    TMP DP  RH WIND       PRES   REMARKS
GARY*          PTSUNNY   43  30  61 SW14G29   29.77R
MICHIGAN CITY* CLOUDY    43  32  65 SW16G24   29.76R
LAPORTE*       MOSUNNY   41  32  70 SW14G20   29.77R
KNOX*          MOSUNNY   43  32  65 SW13G25   29.77S
SOUTH BEND     PTSUNNY   42  32  67 SW21G26   29.76R
ELKHART*       CLOUDY    46  30  53 SW15G26   29.74S
GOSHEN         SUNNY     44  29  55 SW20      29.76R
MONTICELLO*    MOSUNNY   43  30  61 SW16      29.81S
WARSAW*        SUNNY     43  30  61 SW13G23   29.78R
AUBURN*        CLOUDY    43  30  61 SW13G21   29.79R
FORT WAYNE     CLOUDY    44  32  62 SW18      29.81R
PERU/GRISSOM   SUNNY     43  31  62 SW20G25   29.81R

$$
INZ028>050-211600-
CENTRAL INDIANA

CITY           SKY/WX    TMP DP  RH WIND       PRES   REMARKS
LAFAYETTE      CLOUDY    43  31  62 SW12G21   29.85R
KOKOMO*        SUNNY     44  30  57 SW20G30   29.84R
MUNCIE*        CLOUDY    45  27  49 SW17G28   29.85S
INDIANAPOLIS   PTSUNNY   46  29  51 SW15      29.89R

$$
MIZ043>046-050>051-056>058-064>065-071>073-077>080-211600-
SOUTHWEST LOWER MICHIGAN

CITY           SKY/WX    TMP DP  RH WIND       PRES   REMARKS
BATTLE CREEK   SUNNY     45  31  58 SW17G24   29.70R
BENTON HARBOR  CLOUDY    46  33  60 SW18G24   29.73R
COLDWATER*     SUNNY     45  28  52 SW18G29   29.73R
HILLSDALE*     SUNNY     43  28  56 SW16G24   29.72R
HOLLAND        CLOUDY    47  38  71 W20G35    29.69R
GRAND RAPIDS   CLOUDY    46  37  71 SW16G23   29.66R
KALAMAZOO      MOSUNNY   46  29  51 SW15      29.71R
STURGIS*       SUNNY     42  31  64 SW17G28   29.73S
THREE RIVERS*  FAIR      47  32  56 SW13      29.72S

$$
OHZ001>008-015>018-024>025-211600-
NORTHWEST OHIO

CITY           SKY/WX    TMP DP  RH WIND       PRES   REMARKS
DEFIANCE       CLOUDY    44  29  55 SW16G25   29.79S
FINDLAY        MOSUNNY   45  28  51 SW24      29.82S
TOLEDO EXPRESS MOSUNNY   46  30  53 SW16G25   29.76F
TOLEDO METCALF MOSUNNY   44  30  57 SW16G29   29.78F
LIMA           CLOUDY    42  29  59 SW17G25   29.84S

$$
AND FOR LAKE MICHIGAN COASTAL AND OPEN LAKE BUOY OBSERVATIONS

STATION/POSITION TEMP    WIND        PRES    VSBY  WAVE
                 AIR SEA DIR/SP/G                  HT/PER
                 (F)     (DEG/KT/KT) (MB)    (MI)  (FT/S)
CALUMET HARBOR    43     210/ 12/ 19 1006.6R
MICHIGAN CITY     43     200/ 17/ 20   N/A
BURNS HARBOR      43     220/ 15/ 23 1008.1R
SAINT JOSEPH      44     220/ 21/ 27 1006.1
SOUTH LAKE BUOY   46 48  260/ 23/ 27 1003.8          6/ 7

$$
&&




USA.gov is the U.S. government's official web portal to all federal, state and local government web resources and services.